Flag for Germany Weather past 2 weeks in Hannover, Lower Saxony, Germany

46 °F


Feels Like: 41 °F
Forecast: 34 / 45 °F
Wind: 12 mph from Northeast

Location: Hannover

Current Time: Oct 10, 2015 at 7:06:12 PM

Latest Report: Oct 10, 2015 at 6:20 PM

Visibility: 10 mi

Pressure: 30.15 "Hg

Humidity: 76%

Dew point: 39 °F

Location of HannoverLocation

Historic Weather in Hannover — Graph


Hannover temperature yesterday

Maximum temperature yesterday: 55 °F (at 12:20 AM)
Minimum temperature yesterday: 48 °F (at 11:20 PM)
Average temperature yesterday: 53 °F

Past Weeks' High & Low Weather Summary

High66 °F (Oct 3, 4:50 PM)100% (Sep 25, 8:20 PM)30.69 "Hg (Sep 25, 8:20 PM)
Low36 °F (Oct 2, 3:50 AM)45% (Oct 2, 4:20 PM)29.68 "Hg (Oct 6, 8:50 AM)
Average52 °F88%30.22 "Hg
* Reported Sep 25 5:20 PM — Oct 10 5:50 PM, Hannover, Weather by CustomWeather, © 2015

Note: Actual official high and low records may vary slightly from our data, if they occured in-between our weather recording intervals... More about our weather records


Hannover weather history for previous 24 hours

Time TempWeatherWind HumidityBarometerVisibility
5:50 PM
Sat, Oct 10
50 °FSunny.12 mph67%30.18 "Hg10 mi
5:20 PM52 °FSunny.12 mph62%30.18 "Hg10 mi
4:50 PM52 °FSunny.14 mph62%30.18 "Hg10 mi
4:20 PM52 °FSunny.10 mph62%30.15 "Hg10 mi
3:50 PM52 °FSunny.16 mph54%30.18 "Hg10 mi
3:20 PM52 °FSunny.13 mph58%30.18 "Hg10 mi
2:50 PM52 °FPassing clouds.13 mph62%30.18 "HgN/A
2:20 PM50 °FPassing clouds.14 mph62%30.18 "HgN/A
1:50 PM50 °FSunny.14 mph62%30.18 "Hg10 mi
1:20 PM50 °FSunny.15 mph62%30.18 "Hg10 mi
12:50 PM48 °FSunny.14 mph66%30.21 "Hg10 mi
12:20 PM48 °FSunny.14 mph66%30.21 "Hg10 mi
11:50 AM48 °FPassing clouds.10 mph71%30.21 "HgN/A
11:20 AM46 °FSunny.10 mph76%30.21 "Hg10 mi
10:50 AM46 °FSunny.12 mph71%30.21 "Hg10 mi
10:20 AM45 °FPassing clouds.9 mph81%30.21 "HgN/A
9:50 AM43 °FSunny.12 mph87%30.21 "Hg10 mi
9:20 AM43 °FSunny.13 mph87%30.21 "Hg10 mi
8:50 AM41 °FSunny.10 mph93%30.21 "Hg10 mi
8:20 AM41 °FClear.7 mph93%30.21 "Hg10 mi
7:50 AM41 °FClear.8 mph93%30.21 "Hg10 mi
7:20 AM41 °FClear.7 mph100%30.21 "Hg10 mi
6:50 AM43 °FClear.8 mph93%30.21 "Hg10 mi
6:20 AM43 °FClear.7 mph100%30.21 "Hg10 mi
5:50 AM43 °FClear.8 mph100%30.21 "Hg10 mi
5:20 AM43 °FClear.8 mph100%30.21 "Hg6 mi
4:50 AM43 °FClear.7 mph100%30.21 "Hg6 mi
4:20 AM43 °FClear.9 mph93%30.21 "Hg5 mi
3:50 AM43 °FClear.8 mph100%30.21 "Hg4 mi
3:20 AM43 °FClear.8 mph100%30.21 "Hg4 mi
2:50 AM43 °FPassing clouds.8 mph100%30.21 "Hg4 mi
2:20 AM43 °FFog.7 mph100%30.21 "Hg3 mi
1:50 AM43 °FFog.6 mph100%30.21 "Hg3 mi
1:20 AM45 °FFog.7 mph100%30.21 "Hg3 mi
12:50 AM45 °FPassing clouds.6 mph100%30.21 "Hg4 mi
12:20 AM46 °FPassing clouds.7 mph93%30.21 "Hg5 mi
11:20 PM
Fri, Oct 9
48 °FPassing clouds.9 mph94%30.21 "Hg6 mi
10:50 PM50 °FPassing clouds.10 mph94%30.21 "Hg5 mi
10:20 PM50 °FLow clouds.10 mph94%30.21 "Hg5 mi
9:50 PM50 °FMostly cloudy.9 mph94%30.21 "Hg4 mi
9:20 PM50 °FOvercast.8 mph94%30.21 "Hg4 mi
8:50 PM50 °FFog.8 mph100%30.21 "Hg3 mi
8:20 PM50 °FFog.8 mph100%30.21 "Hg2 mi
7:50 PM50 °FFog.9 mph100%30.21 "Hg2 mi
7:20 PM50 °FFog.7 mph100%30.18 "Hg2 mi
Weather by CustomWeather, © 2015

See weather overviewHow to use our weather pages